KC7O Weather Reports


Display with metric or nautical units.
time (UTC)temp
F
wind
direction
speed
MPH
gust
MPH
rain 1hr
in
rain 24hr
in
rain mn
in
humidity
%
barometer
mb
20260503044913 61 78 0.0 0.0 0.00 0.00 0.00 83 1011.0
20260503044400 61 78 0.0 0.0 0.00 0.00 0.00 83 1011.0
20260503043846 61 78 0.0 0.0 0.00 0.00 0.00 83 1010.9
20260503043351 61 78 0.0 0.0 0.00 0.00 0.00 83 1010.8
20260503042917 61 78 0.0 0.0 0.00 0.00 0.00 83 1010.7
20260503042359 61 78 0.0 1.0 0.00 0.00 0.00 82 1010.7
20260503041851 61 78 0.0 1.0 0.00 0.00 0.00 83 1010.6
20260503041416 61 250 0.0 0.0 0.00 0.00 0.00 82 1010.6
20260503040357 62 250 0.0 0.0 0.00 0.00 0.00 81 1010.6
20260503035903 62 250 0.0 0.0 0.00 0.00 0.00 81 1010.5
20260503035413 62 250 0.0 0.0 0.00 0.00 0.00 81 1010.3
20260503034900 63 250 0.0 0.0 0.00 0.00 0.00 80 1010.2
20260503034427 63 250 0.0 0.0 0.00 0.00 0.00 80 1010.1
20260503033858 63 250 0.0 1.0 0.00 0.00 0.00 79 1010.0
20260503033346 63 250 0.0 1.0 0.00 0.00 0.00 79 1009.9
20260503032853 63 250 0.0 1.0 0.00 0.00 0.00 79 1009.9
20260503032401 63 249 0.0 1.0 0.00 0.00 0.00 79 1009.8
20260503031849 64 254 0.0 1.0 0.00 0.00 0.00 78 1009.8
20260503031357 64 242 0.0 2.0 0.00 0.00 0.00 78 1009.7
20260503030848 64 266 0.0 2.0 0.00 0.00 0.00 77 1009.5
20260503030355 64 149 0.0 2.0 0.00 0.00 0.00 77 1009.5
20260503025903 65 249 0.0 1.0 0.00 0.00 0.00 77 1009.4
20260503025351 65 266 0.0 1.0 0.00 0.00 0.00 75 1009.3
20260503024859 65 249 0.0 4.0 0.00 0.00 0.00 75 1009.2
20260503024348 66 186 0.0 4.0 0.00 0.00 0.00 74 1009.1
20260503023852 66 260 0.0 3.0 0.00 0.00 0.00 73 1009.0
20260503023359 67 252 0.0 3.0 0.00 0.00 0.00 73 1009.0
20260503022847 67 139 1.0 3.0 0.00 0.00 0.00 72 1008.9
20260503022357 68 201 0.0 2.0 0.00 0.00 0.00 72 1008.8
20260503021848 68 240 0.0 2.0 0.00 0.00 0.00 71 1008.7
20260503021357 69 248 0.0 1.0 0.00 0.00 0.00 70 1008.7
20260503020846 69 176 0.0 4.0 0.00 0.00 0.00 70 1008.7
20260503020354 69 231 1.0 4.0 0.00 0.00 0.00 69 1008.7
20260503015903 70 233 0.0 4.0 0.00 0.00 0.00 69 1008.7
20260503015410 70 173 1.0 4.0 0.00 0.00 0.00 68 1008.7
20260503014855 70 218 1.0 3.0 0.00 0.00 0.00 67 1008.6
20260503014402 71 254 0.0 3.0 0.00 0.00 0.00 67 1008.7
20260503013851 71 157 0.0 3.0 0.00 0.00 0.00 67 1008.7
20260503013418 71 167 1.0 3.0 0.00 0.00 0.00 66 1008.6
20260503012844 72 165 1.0 3.0 0.00 0.00 0.00 66 1008.6
20260503012353 72 207 1.0 4.0 0.00 0.00 0.00 65 1008.6
20260503011847 72 233 1.0 4.0 0.00 0.00 0.00 65 1008.7
20260503011356 73 235 1.0 3.0 0.00 0.00 0.00 64 1008.6
20260503010902 73 229 2.0 4.0 0.00 0.00 0.00 63 1008.7
20260503010410 74 153 1.0 4.0 0.00 0.00 0.00 63 1008.7
20260503005400 74 153 2.0 5.0 0.00 0.00 0.00 63 1008.7
20260503004847 74 139 2.0 5.0 0.00 0.00 0.00 63 1008.8
20260503004356 74 157 1.0 4.0 0.00 0.00 0.00 63 1008.7
20260503003902 74 191 1.0 4.0 0.00 0.00 0.00 63 1008.7
20260503003350 74 261 1.0 5.0 0.00 0.00 0.00 63 1008.7
20260503002915 74 105 2.0 5.0 0.00 0.00 0.00 63 1008.7
20260503002358 74 169 1.0 5.0 0.00 0.00 0.00 63 1008.7
20260503001849 74 236 2.0 4.0 0.00 0.00 0.00 63 1008.8
20260503001353 74 258 1.0 4.0 0.00 0.00 0.00 63 1008.7
20260503000859 74 214 2.0 4.0 0.00 0.00 0.00 63 1008.7
20260503000345 74 234 1.0 4.0 0.00 0.00 0.00 63 1008.7
20260502235913 74 200 1.0 4.0 0.00 0.00 0.00 63 1008.6
20260502235400 75 244 1.0 5.0 0.00 0.00 0.00 62 1008.6
20260502234909 75 245 1.0 5.0 0.00 0.00 0.00 63 1008.6
20260502234357 75 174 1.0 5.0 0.00 0.00 0.00 62 1008.6
20260502233846 75 145 2.0 5.0 0.00 0.00 0.00 62 1008.6
20260502233355 76 184 2.0 5.0 0.00 0.00 0.00 61 1008.8
20260502232903 75 204 1.0 5.0 0.00 0.00 0.00 62 1008.7
20260502232355 75 254 1.0 5.0 0.00 0.00 0.00 61 1008.8
20260502231903 76 213 2.0 5.0 0.00 0.00 0.00 61 1008.8
20260502231351 76 276 1.0 6.0 0.00 0.00 0.00 61 1008.8
20260502230856 76 252 2.0 6.0 0.00 0.00 0.00 60 1008.9
20260502230424 77 169 2.0 6.0 0.00 0.00 0.00 60 1008.9
20260502225849 77 272 2.0 6.0 0.00 0.00 0.00 60 1009.0
20260502225356 77 137 1.0 4.0 0.00 0.00 0.00 60 1009.1
20260502224844 77 165 2.0 4.0 0.00 0.00 0.00 59 1009.2
20260502224351 77 196 2.0 5.0 0.00 0.00 0.00 60 1009.4
20260502223859 77 275 2.0 5.0 0.00 0.00 0.00 60 1009.4
20260502223345 78 149 2.0 5.0 0.00 0.00 0.00 58 1009.5
20260502222855 78 160 2.0 5.0 0.00 0.00 0.00 59 1009.5
20260502222402 77 239 2.0 8.0 0.00 0.00 0.00 59 1009.7
20260502221850 77 179 1.0 8.0 0.00 0.00 0.00 59 1009.8
20260502221356 77 246 2.0 9.0 0.00 0.00 0.00 59 1009.8
20260502220925 77 146 3.0 9.0 0.00 0.00 0.00 60 1009.9
20260502220348 77 168 2.0 6.0 0.00 0.00 0.00 59 1010.0
20260502215355 77 173 3.0 6.0 0.00 0.00 0.00 59 1010.1
20260502214902 77 150 2.0 6.0 0.00 0.00 0.00 60 1010.3
20260502214347 77 233 0.0 3.0 0.00 0.00 0.00 60 1010.4
20260502213854 77 281 2.0 8.0 0.00 0.00 0.00 60 1010.5
20260502213403 77 276 3.0 8.0 0.00 0.00 0.00 59 1010.5
20260502212855 77 276 1.0 6.0 0.00 0.00 0.00 60 1010.6
20260502212401 77 294 2.0 6.0 0.00 0.00 0.00 60 1010.7
20260502211848 77 266 3.0 6.0 0.00 0.00 0.00 60 1010.7
20260502211416 77 178 3.0 6.0 0.00 0.00 0.00 61 1010.7
20260502210923 76 172 2.0 6.0 0.00 0.00 0.00 61 1010.7
20260502210351 76 193 3.0 6.0 0.00 0.00 0.00 62 1010.7
20260502205858 76 172 3.0 6.0 0.00 0.00 0.00 61 1010.7
20260502205345 76 141 2.0 5.0 0.00 0.00 0.00 62 1010.7
20260502204854 76 210 1.0 6.0 0.00 0.00 0.00 62 1010.9
20260502204400 75 162 2.0 6.0 0.00 0.00 0.00 63 1011.0
20260502203846 75 152 3.0 4.0 0.00 0.00 0.00 63 1011.0
20260502203353 75 234 2.0 6.0 0.00 0.00 0.00 63 1011.1
20260502202903 76 161 2.0 6.0 0.00 0.00 0.00 63 1011.1
20260502202409 75 220 2.0 6.0 0.00 0.00 0.00 63 1011.2
20260502201914 75 176 3.0 6.0 0.00 0.00 0.00 63 1011.2
20260502201400 75 170 1.0 6.0 0.00 0.00 0.00 63 1011.2
20260502200906 75 257 2.0 6.0 0.00 0.00 0.00 64 1011.2
20260502200349 75 250 3.0 5.0 0.00 0.00 0.00 63 1011.3
20260502195855 75 131 2.0 5.0 0.00 0.00 0.00 64 1011.5
20260502195404 75 146 2.0 5.0 0.00 0.00 0.00 65 1011.4
20260502194851 74 141 2.0 5.0 0.00 0.00 0.00 64 1011.4
20260502194358 74 150 1.0 4.0 0.00 0.00 0.00 65 1011.5
20260502193845 74 200 1.0 4.0 0.00 0.00 0.00 66 1011.6
20260502193353 73 232 0.0 5.0 0.00 0.00 0.00 68 1011.8
20260502192857 73 273 2.0 5.0 0.00 0.00 0.00 67 1012.0
20260502192406 73 229 2.0 7.0 0.00 0.00 0.00 66 1012.0
20260502191857 72 283 1.0 7.0 0.00 0.00 0.00 68 1012.2
20260502191424 73 269 2.0 3.0 0.00 0.00 0.00 67 1012.1
20260502190911 72 102 2.0 5.0 0.00 0.00 0.00 67 1012.1
20260502190416 72 278 2.0 5.0 0.00 0.00 0.00 67 1012.2
20260502185902 72 274 2.0 5.0 0.00 0.00 0.00 68 1012.1
20260502185349 72 191 2.0 5.0 0.00 0.00 0.00 68 1012.1
20260502184855 71 139 2.0 4.0 0.00 0.00 0.00 69 1012.1
20260502184402 71 158 1.0 4.0 0.00 0.00 0.00 69 1012.2
20260502183852 71 186 2.0 4.0 0.00 0.00 0.00 70 1012.2
20260502183359 70 222 0.0 5.0 0.00 0.00 0.00 71 1012.3
20260502182355 69 148 2.0 5.0 0.00 0.00 0.00 70 1012.3
20260502181848 70 189 2.0 4.0 0.00 0.00 0.00 71 1012.4
20260502181355 69 163 2.0 4.0 0.00 0.00 0.00 72 1012.5
20260502180902 69 139 0.0 4.0 0.00 0.00 0.00 72 1012.7
20260502180411 69 275 1.0 4.0 0.00 0.00 0.00 73 1012.7
20260502170406 64 145 2.0 3.0 0.00 0.00 0.00 78 1013.2
20260502163856 62 191 1.0 3.0 0.00 0.00 0.00 82 1013.4
20260502163345 62 201 1.0 4.0 0.00 0.00 0.00 84 1013.5
20260502162851 62 245 2.0 4.0 0.00 0.00 0.00 83 1013.6
20260502162356 62 251 1.0 3.0 0.00 0.00 0.00 84 1013.4
20260502161900 62 274 1.0 3.0 0.00 0.00 0.00 84 1013.1
20260502161349 61 214 1.0 3.0 0.00 0.00 0.00 85 1013.1
20260502160853 61 138 0.0 2.0 0.00 0.00 0.00 86 1013.1
20260502160401 60 171 0.0 2.0 0.00 0.00 0.00 86 1013.2
20260502151855 58 147 0.0 3.0 0.00 0.00 0.00 90 1013.1
20260502151348 58 163 0.0 0.0 0.00 0.00 0.00 90 1013.2
20260502150855 58 178 0.0 2.0 0.00 0.00 0.00 90 1013.3
20260502150404 58 232 0.0 2.0 0.00 0.00 0.00 90 1013.4
20260502130412 55 206 0.0 0.0 0.00 0.00 0.00 95 1012.3
20260502123351 54 226 0.0 0.0 0.00 0.00 0.00 95 1012.1
20260502122854 54 226 0.0 0.0 0.00 0.00 0.00 95 1012.1
20260502122344 54 226 0.0 0.0 0.00 0.00 0.00 94 1012.1
20260502121847 54 226 0.0 0.0 0.00 0.00 0.00 94 1012.0
20260502121353 54 226 0.0 0.0 0.00 0.00 0.00 94 1011.9
20260502120857 54 226 0.0 0.0 0.00 0.00 0.00 94 1011.9
20260502120344 54 226 0.0 0.0 0.00 0.00 0.00 94 1011.9
20260502115851 54 226 0.0 0.0 0.00 0.00 0.00 94 1011.8
20260502115420 54 226 0.0 0.0 0.00 0.00 0.00 94 1011.7
20260502114846 54 226 0.0 0.0 0.00 0.00 0.00 94 1011.7
20260502114355 54 226 0.0 0.0 0.00 0.00 0.00 94 1011.8
20260502113923 54 226 0.0 0.0 0.00 0.00 0.00 94 1011.7
20260502113348 54 226 0.0 0.0 0.00 0.00 0.00 94 1011.6
20260502112917 54 226 0.0 0.0 0.00 0.00 0.00 94 1011.6
20260502112402 54 226 0.0 0.0 0.00 0.00 0.00 94 1011.6
20260502111852 54 226 0.0 0.0 0.00 0.00 0.00 93 1011.6
20260502111417 54 226 0.0 0.0 0.00 0.00 0.00 93 1011.5
20260502110849 54 226 0.0 0.0 0.00 0.00 0.00 93 1011.5
20260502110357 54 226 0.0 0.0 0.00 0.00 0.00 93 1011.5
20260502105845 54 226 0.0 0.0 0.00 0.00 0.00 93 1011.4
20260502105353 54 226 0.0 0.0 0.00 0.00 0.00 93 1011.5
20260502104921 55 226 0.0 0.0 0.00 0.00 0.00 93 1011.5
20260502104349 55 226 0.0 0.0 0.00 0.00 0.00 93 1011.4
20260502103857 55 226 0.0 0.0 0.00 0.00 0.00 93 1011.4
20260502103405 55 226 0.0 0.0 0.00 0.00 0.00 93 1011.4
20260502102853 55 226 0.0 0.0 0.00 0.00 0.00 93 1011.4
20260502102402 55 226 0.0 0.0 0.00 0.00 0.00 93 1011.2
20260502101850 55 226 0.0 0.0 0.00 0.00 0.00 93 1011.3
20260502101419 56 226 0.0 0.0 0.00 0.00 0.00 93 1011.2
20260502100847 55 226 0.0 0.0 0.00 0.00 0.00 93 1011.3
20260502100357 55 226 0.0 0.0 0.00 0.00 0.00 93 1011.3
20260502091353 55 226 0.0 0.0 0.00 0.00 0.00 92 1011.6
20260502090902 55 226 0.0 0.0 0.00 0.00 0.00 93 1011.6
20260502090350 55 226 0.0 0.0 0.00 0.00 0.00 93 1011.7
20260502071344 57 226 0.0 0.0 0.00 0.00 0.00 91 1012.5
20260502070911 57 226 0.0 0.0 0.00 0.00 0.00 91 1012.5
20260502070357 57 226 0.0 0.0 0.00 0.00 0.00 91 1012.4
20260502065850 57 226 0.0 0.0 0.00 0.00 0.00 91 1012.3
20260502065418 57 226 0.0 0.0 0.00 0.00 0.00 90 1012.4
20260502064903 57 226 0.0 0.0 0.00 0.00 0.00 90 1012.5
20260502064350 57 226 0.0 0.0 0.00 0.00 0.00 90 1012.4
20260502063917 57 226 0.0 0.0 0.00 0.00 0.00 90 1012.3
20260502063402 57 226 0.0 0.0 0.00 0.00 0.00 90 1012.3
20260502062849 57 226 0.0 0.0 0.00 0.00 0.00 90 1012.3
20260502062357 57 226 0.0 0.0 0.00 0.00 0.00 90 1012.2
20260502061846 57 226 0.0 0.0 0.00 0.00 0.00 89 1012.3
20260502061354 58 226 0.0 0.0 0.00 0.00 0.00 89 1012.3
20260502060847 58 226 0.0 0.0 0.00 0.00 0.00 89 1012.3
20260502060352 58 226 0.0 0.0 0.00 0.00 0.00 89 1012.3
20260502055901 58 226 0.0 0.0 0.00 0.00 0.00 89 1012.3
20260502055349 58 226 0.0 0.0 0.00 0.00 0.00 88 1012.4
20260502054858 58 226 0.0 0.0 0.00 0.00 0.00 88 1012.3
20260502054346 58 226 0.0 0.0 0.00 0.00 0.00 88 1012.4
20260502053854 58 226 0.0 0.0 0.00 0.00 0.00 88 1012.4
20260502053401 59 226 0.0 0.0 0.00 0.00 0.00 88 1012.4
20260502052850 59 226 0.0 0.0 0.00 0.00 0.00 87 1012.5
20260502052358 59 226 0.0 0.0 0.00 0.00 0.00 87 1012.4
20260502051846 59 226 0.0 0.0 0.00 0.00 0.00 87 1012.3
20260502051356 59 226 0.0 0.0 0.00 0.00 0.00 87 1012.3
20260502050905 59 226 0.0 0.0 0.00 0.00 0.00 86 1012.3
20260502050352 59 226 0.0 0.0 0.00 0.00 0.00 86 1012.3
20260502045900 60 226 0.0 0.0 0.00 0.00 0.00 85 1012.3
20260502045346 60 226 0.0 0.0 0.00 0.00 0.00 85 1012.3